User: anonymous   Login
Location: Cran-Gévrier
(45.9039°N, 6.1012°E)
Time: 21:34:07
(UTC+00:00)
Language:

FENGYUN 1C DEB - Orbit

View from above orbital plane
View from above orbital plane
View from above satellite
View from above satellite

Ground track
Ground track

The orbit data is extracted from the following two-line orbital elements,

1 30062U 99025PP  24057.95924553  .00000600  00000-0  39052-3 0  9994
2 30062  98.8112  79.6507 0051083  88.1213 335.2127 14.05563206877047
Epoch (UTC): 26 February 2024 23:01:18
Eccentricity: 0.0051083
inclination: 98.8112°
perigee height: 837 km
apogee height: 911 km
right ascension of ascending node: 79.6507°
argument of perigee: 88.1213°
revolutions per day: 14.05563206
mean anomaly at epoch: 335.2127°
orbit number at epoch: 87704

The dashed part of the orbit path shows where the satellite is in the earth's shadow,  

DLR